N624JX KFRG-KTPA

Flight info

Callsign N624JX
Flight time 2h 6m
Altitude 43000
Route WAVEY EMJAY Q167 ZJAAY Q97 SAWED GUILD Q409 PUPYY BAAMF DADES2
Aircraft C750/M-SBDE3FGHRWXY/S

Departure

Time 2026-04-25 19:38
Airport Republic Airport (KFRG)

Arrival

Time 2026-04-25 21:45
Airport Tampa International Airport (KTPA)
Time Latitude Longitude Altitude Speed Heading
2026-04-25 19:31 40.72895 -73.41689 68 ft 0 kts 223°
2026-04-25 19:33 40.72892 -73.41692 63 ft 2 kts 223°
2026-04-25 19:33 40.72893 -73.41716 68 ft 4 kts 303°
2026-04-25 19:33 40.72919 -73.41727 65 ft 5 kts 14°
2026-04-25 19:34 40.72942 -73.41705 68 ft 5 kts 42°
2026-04-25 19:34 40.72974 -73.41687 68 ft 5 kts 345°
2026-04-25 19:34 40.72997 -73.41712 62 ft 6 kts 313°
2026-04-25 19:34 40.73030 -73.41760 68 ft 6 kts 312°
2026-04-25 19:35 40.73061 -73.41806 64 ft 6 kts 312°
2026-04-25 19:35 40.73102 -73.41864 67 ft 12 kts 312°
2026-04-25 19:35 40.73151 -73.41935 68 ft 9 kts 312°
2026-04-25 19:35 40.73194 -73.41998 66 ft 9 kts 312°
2026-04-25 19:36 40.73239 -73.42063 65 ft 12 kts 312°
2026-04-25 19:36 40.73291 -73.42139 65 ft 9 kts 312°
2026-04-25 19:36 40.73329 -73.42194 63 ft 7 kts 312°
2026-04-25 19:36 40.73354 -73.42230 66 ft 5 kts 313°
2026-04-25 19:37 40.73377 -73.42252 68 ft 3 kts 349°
2026-04-25 19:37 40.73405 -73.42229 69 ft 5 kts 42°
2026-04-25 19:37 40.73432 -73.42197 70 ft 6 kts 43°
2026-04-25 19:37 40.73448 -73.42157 66 ft 5 kts 97°
2026-04-25 19:38 40.73426 -73.42121 69 ft 14 kts 133°
2026-04-25 19:38 40.73154 -73.41726 66 ft 102 kts 132°
2026-04-25 19:38 40.72573 -73.40886 255 ft 131 kts 130°
2026-04-25 19:38 40.71738 -73.40363 709 ft 153 kts 178°
2026-04-25 19:39 40.70738 -73.41030 1190 ft 167 kts 211°
2026-04-25 19:39 40.69759 -73.41887 1774 ft 171 kts 207°
2026-04-25 19:39 40.68743 -73.42752 2339 ft 179 kts 208°
2026-04-25 19:39 40.67608 -73.43551 2853 ft 191 kts 188°
2026-04-25 19:40 40.66261 -73.43453 3401 ft 201 kts 169°
2026-04-25 19:40 40.64804 -73.43309 3987 ft 218 kts 175°
2026-04-25 19:40 40.63223 -73.43210 4575 ft 236 kts 176°
2026-04-25 19:40 40.61544 -73.43057 5162 ft 253 kts 176°
2026-04-25 19:41 40.59772 -73.42878 6040 ft 257 kts 178°
2026-04-25 19:41 40.57966 -73.42704 6959 ft 264 kts 179°
2026-04-25 19:41 40.56111 -73.42531 7891 ft 270 kts 180°
2026-04-25 19:41 40.55475 -73.42471 8238 ft 272 kts 180°
2026-04-25 19:42 40.52282 -73.42167 9823 ft 282 kts 180°
2026-04-25 19:42 40.50291 -73.41978 10497 ft 294 kts 180°
2026-04-25 19:42 40.48192 -73.41782 10981 ft 310 kts 180°
2026-04-25 19:42 40.45986 -73.41574 11480 ft 325 kts 180°
2026-04-25 19:43 40.43686 -73.41354 11992 ft 338 kts 180°
2026-04-25 19:43 40.41299 -73.41126 12509 ft 350 kts 180°
2026-04-25 19:43 40.38832 -73.40892 13034 ft 361 kts 180°
2026-04-25 19:43 40.36298 -73.40652 13565 ft 369 kts 180°
2026-04-25 19:44 40.33704 -73.40407 14068 ft 378 kts 180°
2026-04-25 19:44 40.31051 -73.40157 14540 ft 386 kts 180°
2026-04-25 19:44 40.28346 -73.39901 15019 ft 393 kts 180°
2026-04-25 19:44 40.25605 -73.39564 15484 ft 401 kts 175°
2026-04-25 19:45 40.22893 -73.38473 15930 ft 416 kts 161°
2026-04-25 19:45 40.20355 -73.36551 16371 ft 427 kts 148°
2026-04-25 19:45 40.17910 -73.34330 16761 ft 429 kts 152°
2026-04-25 19:45 40.15205 -73.32700 17146 ft 429 kts 164°
2026-04-25 19:46 40.12314 -73.31782 17541 ft 428 kts 176°
2026-04-25 19:46 40.09344 -73.31611 17928 ft 427 kts 188°
2026-04-25 19:46 40.06421 -73.32190 18512 ft 424 kts 199°
2026-04-25 19:46 40.03657 -73.33476 19043 ft 420 kts 210°
2026-04-25 19:47 40.01157 -73.35399 19651 ft 416 kts 221°
2026-04-25 19:47 39.98964 -73.37764 20200 ft 415 kts 226°
2026-04-25 19:47 39.96735 -73.40260 20756 ft 418 kts 225°
2026-04-25 19:47 39.94540 -73.42699 21196 ft 422 kts 225°
2026-04-25 19:48 39.92304 -73.45191 21662 ft 425 kts 225°
2026-04-25 19:48 39.90053 -73.47708 22119 ft 428 kts 225°
2026-04-25 19:48 39.87786 -73.50236 22586 ft 430 kts 225°
2026-04-25 19:48 39.85500 -73.52776 23051 ft 433 kts 225°
2026-04-25 19:49 39.83203 -73.55329 23518 ft 436 kts 224°
2026-04-25 19:49 39.82425 -73.56196 23666 ft 437 kts 225°
2026-04-25 19:49 39.78577 -73.60488 24324 ft 440 kts 225°
2026-04-25 19:49 39.76247 -73.63077 24723 ft 441 kts 224°
2026-04-25 19:50 39.71566 -73.68273 25502 ft 444 kts 224°
2026-04-25 19:50 39.69214 -73.70882 25885 ft 445 kts 224°
2026-04-25 19:50 39.66853 -73.73497 26266 ft 447 kts 224°
2026-04-25 19:51 39.64481 -73.76121 26636 ft 449 kts 224°
2026-04-25 19:51 39.62102 -73.78752 26989 ft 450 kts 224°
2026-04-25 19:51 39.59713 -73.81392 27322 ft 452 kts 224°
2026-04-25 19:51 39.57316 -73.84037 27635 ft 453 kts 224°
2026-04-25 19:52 39.54908 -73.86691 27924 ft 455 kts 224°
2026-04-25 19:52 39.52496 -73.89349 28194 ft 456 kts 224°
2026-04-25 19:52 39.50075 -73.92013 28433 ft 457 kts 224°
2026-04-25 19:52 39.47645 -73.94685 28664 ft 459 kts 224°
2026-04-25 19:53 39.45210 -73.97360 28881 ft 460 kts 224°
2026-04-25 19:53 39.42768 -74.00039 29075 ft 461 kts 224°
2026-04-25 19:53 39.40325 -74.02716 29313 ft 459 kts 224°
2026-04-25 19:53 39.37901 -74.05366 29616 ft 454 kts 224°
2026-04-25 19:54 39.35489 -74.08002 29732 ft 455 kts 224°
2026-04-25 19:54 39.33066 -74.10652 29858 ft 457 kts 224°
2026-04-25 19:54 39.30640 -74.13297 30065 ft 456 kts 224°
2026-04-25 19:55 39.25800 -74.18567 30424 ft 454 kts 224°
2026-04-25 19:55 39.23388 -74.21193 30608 ft 454 kts 224°
2026-04-25 19:55 39.20975 -74.23815 30795 ft 453 kts 224°
2026-04-25 19:55 39.18569 -74.26428 30997 ft 452 kts 224°
2026-04-25 19:56 39.16163 -74.29038 31156 ft 453 kts 224°
2026-04-25 19:56 39.13752 -74.31652 31353 ft 453 kts 224°
2026-04-25 19:56 39.11340 -74.34263 31611 ft 452 kts 224°
2026-04-25 19:56 39.08933 -74.36866 31885 ft 451 kts 224°
2026-04-25 19:57 39.06536 -74.39457 32178 ft 449 kts 224°
2026-04-25 19:57 39.04145 -74.42040 32450 ft 448 kts 224°
2026-04-25 19:57 39.01757 -74.44616 32741 ft 448 kts 224°
2026-04-25 19:57 38.99373 -74.47186 33064 ft 447 kts 224°
2026-04-25 19:58 38.97022 -74.49719 33485 ft 447 kts 224°
2026-04-25 19:58 38.94645 -74.52275 34082 ft 445 kts 224°
2026-04-25 19:58 38.92342 -74.54907 34575 ft 442 kts 227°
2026-04-25 19:58 38.90080 -74.57578 35078 ft 442 kts 227°
2026-04-25 19:59 38.87814 -74.60237 35601 ft 441 kts 227°
2026-04-25 19:59 38.85546 -74.62881 36130 ft 440 kts 227°
2026-04-25 19:59 38.83283 -74.65523 36658 ft 440 kts 228°
2026-04-25 19:59 38.81027 -74.68165 37174 ft 439 kts 229°
2026-04-25 20:00 38.78772 -74.70799 37665 ft 438 kts 229°
2026-04-25 20:00 38.78007 -74.71691 37830 ft 438 kts 229°
2026-04-25 20:00 38.75010 -74.75169 38440 ft 440 kts 228°
2026-04-25 20:00 38.72639 -74.77663 38873 ft 442 kts 226°
2026-04-25 20:01 38.67869 -74.82616 39657 ft 442 kts 226°
2026-04-25 20:01 38.65488 -74.85107 40037 ft 442 kts 225°
2026-04-25 20:01 38.63103 -74.87590 40437 ft 442 kts 225°
2026-04-25 20:02 38.60711 -74.90071 40832 ft 443 kts 225°
2026-04-25 20:02 38.58319 -74.92554 41206 ft 443 kts 225°
2026-04-25 20:02 38.55925 -74.95041 41578 ft 444 kts 224°
2026-04-25 20:02 38.53524 -74.97531 41971 ft 444 kts 224°
2026-04-25 20:03 38.51183 -75.00093 42309 ft 443 kts 226°
2026-04-25 20:03 38.48866 -75.02694 42694 ft 443 kts 226°
2026-04-25 20:03 38.46527 -75.05270 42955 ft 448 kts 224°
2026-04-25 20:03 38.44012 -75.07693 42942 ft 457 kts 221°
2026-04-25 20:04 38.38807 -75.12584 42935 ft 472 kts 221°
2026-04-25 20:04 38.33479 -75.17682 42957 ft 486 kts 221°
2026-04-25 20:05 38.27976 -75.22871 42949 ft 496 kts 221°
2026-04-25 20:05 38.22435 -75.28124 42954 ft 497 kts 221°
2026-04-25 20:06 38.16877 -75.33364 42935 ft 498 kts 221°
2026-04-25 20:06 38.11312 -75.38611 42939 ft 498 kts 221°
2026-04-25 20:07 38.05743 -75.43845 42939 ft 497 kts 221°
2026-04-25 20:07 38.00043 -75.48849 42926 ft 498 kts 219°
2026-04-25 20:08 37.94327 -75.53842 42924 ft 500 kts 219°
2026-04-25 20:08 37.88599 -75.58821 42923 ft 499 kts 219°
2026-04-25 20:09 37.82819 -75.63710 42915 ft 501 kts 216°
2026-04-25 20:09 37.76809 -75.68202 42889 ft 502 kts 215°
2026-04-25 20:10 37.70806 -75.72736 42890 ft 503 kts 215°
2026-04-25 20:10 37.64788 -75.77245 42890 ft 503 kts 215°
2026-04-25 20:11 37.58783 -75.81746 42895 ft 501 kts 215°
2026-04-25 20:11 37.52942 -75.86405 42881 ft 496 kts 222°
2026-04-25 20:12 37.47834 -75.92265 42896 ft 494 kts 227°
2026-04-25 20:12 37.43633 -75.97128 42882 ft 494 kts 226°
2026-04-25 20:13 37.37740 -76.03986 42882 ft 493 kts 227°
2026-04-25 20:13 37.32689 -76.09836 42871 ft 495 kts 226°
2026-04-25 20:14 37.27632 -76.15689 42874 ft 493 kts 227°
2026-04-25 20:14 37.22607 -76.21492 42851 ft 491 kts 227°
2026-04-25 20:15 37.17573 -76.27296 42840 ft 492 kts 227°
2026-04-25 20:15 37.12563 -76.33061 42840 ft 494 kts 226°
2026-04-25 20:16 37.07506 -76.38867 42840 ft 493 kts 226°
2026-04-25 20:16 37.02451 -76.44663 42840 ft 493 kts 226°
2026-04-25 20:17 36.97389 -76.50454 42855 ft 493 kts 226°
2026-04-25 20:17 36.92353 -76.56203 42833 ft 490 kts 226°
2026-04-25 20:18 36.87311 -76.61952 42835 ft 491 kts 226°
2026-04-25 20:18 36.82264 -76.67694 42832 ft 491 kts 226°
2026-04-25 20:19 36.77215 -76.73428 42827 ft 491 kts 226°
2026-04-25 20:19 36.72164 -76.79152 42826 ft 491 kts 226°
2026-04-25 20:20 36.67091 -76.84892 42824 ft 492 kts 226°
2026-04-25 20:20 36.62033 -76.90601 42803 ft 489 kts 226°
2026-04-25 20:21 36.56987 -76.96292 42801 ft 490 kts 226°
2026-04-25 20:21 36.51934 -77.01976 42787 ft 490 kts 226°
2026-04-25 20:22 36.48548 -77.05782 42813 ft 492 kts 226°
2026-04-25 20:22 36.41795 -77.13351 42811 ft 491 kts 226°
2026-04-25 20:23 36.36720 -77.19031 42808 ft 491 kts 226°
2026-04-25 20:23 36.31640 -77.24697 42804 ft 490 kts 225°
2026-04-25 20:24 36.26272 -77.29973 42817 ft 494 kts 222°
2026-04-25 20:24 36.20880 -77.35227 42819 ft 493 kts 222°
2026-04-25 20:25 36.15486 -77.40471 42822 ft 493 kts 222°
2026-04-25 20:25 36.10091 -77.45703 42821 ft 493 kts 222°
2026-04-25 20:26 36.04684 -77.50943 42811 ft 495 kts 222°
2026-04-25 20:26 35.99268 -77.56175 42811 ft 494 kts 222°
2026-04-25 20:27 35.93855 -77.61401 42811 ft 493 kts 222°
2026-04-25 20:27 35.88457 -77.66599 42812 ft 492 kts 222°
2026-04-25 20:28 35.83049 -77.71801 42822 ft 494 kts 221°
2026-04-25 20:28 35.77626 -77.77004 42829 ft 494 kts 221°
2026-04-25 20:29 35.72204 -77.82200 42824 ft 494 kts 221°
2026-04-25 20:29 35.66782 -77.87386 42826 ft 493 kts 221°
2026-04-25 20:30 35.61356 -77.92567 42833 ft 495 kts 221°
2026-04-25 20:30 35.55906 -77.97759 42835 ft 494 kts 221°
2026-04-25 20:31 35.50483 -78.02921 42841 ft 493 kts 221°
2026-04-25 20:31 35.45056 -78.08074 42833 ft 493 kts 221°
2026-04-25 20:32 35.39626 -78.13223 42831 ft 493 kts 221°
2026-04-25 20:32 35.34197 -78.18360 42832 ft 493 kts 221°
2026-04-25 20:33 35.28765 -78.23492 42832 ft 493 kts 221°
2026-04-25 20:33 35.25165 -78.26889 42836 ft 493 kts 221°
2026-04-25 20:34 35.17896 -78.33736 42823 ft 493 kts 221°
2026-04-25 20:34 35.12442 -78.38862 42836 ft 494 kts 221°
2026-04-25 20:35 35.07027 -78.43944 42833 ft 494 kts 221°
2026-04-25 20:35 35.01569 -78.49056 42835 ft 494 kts 221°
2026-04-25 20:36 34.96110 -78.54161 42836 ft 494 kts 221°
2026-04-25 20:36 34.90632 -78.59276 42838 ft 496 kts 221°
2026-04-25 20:37 34.85150 -78.64382 42840 ft 496 kts 221°
2026-04-25 20:37 34.79664 -78.69488 42855 ft 495 kts 221°
2026-04-25 20:38 34.74212 -78.74550 42858 ft 494 kts 221°
2026-04-25 20:38 34.68746 -78.79620 42839 ft 496 kts 221°
2026-04-25 20:39 34.63265 -78.84691 42840 ft 495 kts 221°
2026-04-25 20:39 34.59638 -78.88044 42841 ft 495 kts 221°
2026-04-25 20:40 34.52303 -78.94811 42841 ft 495 kts 221°
2026-04-25 20:40 34.46814 -78.99862 42842 ft 497 kts 220°
2026-04-25 20:41 34.41251 -79.04826 42852 ft 497 kts 219°
2026-04-25 20:41 34.35624 -79.09650 42851 ft 494 kts 219°
2026-04-25 20:42 34.30005 -79.14466 42847 ft 495 kts 219°
2026-04-25 20:42 34.24465 -79.19392 42835 ft 493 kts 223°
2026-04-25 20:43 34.19187 -79.24642 42845 ft 495 kts 223°
2026-04-25 20:43 34.13839 -79.29881 42847 ft 495 kts 222°
2026-04-25 20:44 34.09375 -79.34282 42848 ft 495 kts 223°
2026-04-25 20:44 34.03165 -79.40372 42854 ft 495 kts 222°
2026-04-25 20:45 33.98692 -79.44757 42845 ft 494 kts 223°
2026-04-25 20:45 33.93356 -79.49978 42851 ft 494 kts 222°
2026-04-25 20:46 33.88014 -79.55195 42857 ft 494 kts 222°
2026-04-25 20:46 33.82591 -79.60297 42849 ft 495 kts 221°
2026-04-25 20:47 33.77163 -79.65393 42847 ft 495 kts 221°
2026-04-25 20:47 33.71699 -79.70467 42852 ft 497 kts 221°
2026-04-25 20:48 33.66243 -79.75550 42851 ft 496 kts 221°
2026-04-25 20:48 33.60779 -79.80619 42853 ft 496 kts 221°
2026-04-25 20:49 33.55342 -79.85663 42855 ft 494 kts 221°
2026-04-25 20:49 33.49891 -79.90707 42851 ft 496 kts 221°
2026-04-25 20:50 33.44432 -79.95751 42852 ft 495 kts 221°
2026-04-25 20:50 33.38973 -80.00788 42864 ft 495 kts 221°
2026-04-25 20:51 33.33508 -80.05821 42864 ft 495 kts 221°
2026-04-25 20:51 33.28048 -80.10842 42856 ft 496 kts 221°
2026-04-25 20:52 33.23495 -80.15023 42871 ft 497 kts 221°
2026-04-25 20:52 33.17113 -80.20871 42858 ft 492 kts 221°
2026-04-25 20:53 33.11668 -80.25858 42854 ft 493 kts 221°
2026-04-25 20:53 33.06257 -80.30799 42853 ft 493 kts 221°
2026-04-25 20:54 33.00809 -80.35770 42878 ft 493 kts 221°
2026-04-25 20:54 32.95358 -80.40733 42877 ft 493 kts 221°
2026-04-25 20:55 32.89906 -80.45691 42877 ft 493 kts 221°
2026-04-25 20:55 32.84453 -80.50642 42879 ft 493 kts 221°
2026-04-25 20:56 32.79003 -80.55581 42861 ft 489 kts 221°
2026-04-25 20:56 32.73579 -80.60491 42876 ft 491 kts 221°
2026-04-25 20:57 32.68156 -80.65429 42871 ft 490 kts 222°
2026-04-25 20:57 32.62818 -80.70474 42869 ft 491 kts 222°
2026-04-25 20:58 32.57425 -80.75442 42868 ft 491 kts 221°
2026-04-25 20:58 32.52059 -80.80449 42868 ft 492 kts 222°
2026-04-25 20:59 32.46665 -80.85433 42867 ft 492 kts 221°
2026-04-25 20:59 32.41281 -80.90421 42869 ft 492 kts 222°
2026-04-25 21:00 32.37691 -80.93738 42874 ft 487 kts 221°
2026-04-25 21:01 32.27834 -81.02670 42869 ft 492 kts 217°
2026-04-25 21:01 32.21858 -81.06678 42880 ft 494 kts 213°
2026-04-25 21:02 32.15892 -81.10703 42873 ft 494 kts 214°
2026-04-25 21:02 32.09908 -81.14685 42874 ft 494 kts 213°
2026-04-25 21:03 32.03933 -81.18681 42827 ft 494 kts 213°
2026-04-25 21:03 31.97934 -81.22692 42846 ft 496 kts 215°
2026-04-25 21:04 31.92594 -81.27696 42859 ft 490 kts 226°
2026-04-25 21:04 31.87546 -81.33029 42884 ft 486 kts 225°
2026-04-25 21:05 31.82501 -81.38347 42881 ft 487 kts 225°
2026-04-25 21:05 31.77457 -81.43666 42867 ft 488 kts 225°
2026-04-25 21:06 31.72383 -81.48998 42869 ft 489 kts 225°
2026-04-25 21:06 31.67307 -81.54331 42872 ft 489 kts 225°
2026-04-25 21:07 31.62231 -81.59652 42877 ft 489 kts 225°
2026-04-25 21:07 31.57155 -81.64967 42885 ft 489 kts 225°
2026-04-25 21:08 31.52090 -81.70260 42875 ft 487 kts 225°
2026-04-25 21:08 31.47015 -81.75559 42886 ft 489 kts 225°
2026-04-25 21:09 31.39152 -81.83102 42874 ft 495 kts 215°
2026-04-25 21:09 31.33176 -81.87136 42889 ft 496 kts 214°
2026-04-25 21:10 31.27226 -81.91202 42889 ft 495 kts 214°
2026-04-25 21:10 31.21236 -81.95249 42881 ft 497 kts 214°
2026-04-25 21:11 31.15248 -81.99310 42884 ft 498 kts 214°
2026-04-25 21:11 31.09256 -82.03357 42882 ft 498 kts 214°
2026-04-25 21:12 31.03266 -82.07402 42906 ft 498 kts 214°
2026-04-25 21:12 30.98244 -82.10787 42952 ft 498 kts 214°
2026-04-25 21:13 30.91258 -82.15489 42959 ft 499 kts 214°
2026-04-25 21:13 30.85247 -82.19529 42959 ft 499 kts 214°
2026-04-25 21:14 30.79237 -82.23562 42965 ft 499 kts 214°
2026-04-25 21:14 30.73185 -82.27618 42975 ft 499 kts 214°
2026-04-25 21:15 30.66954 -82.31148 42964 ft 508 kts 202°
2026-04-25 21:15 30.59945 -82.32642 42982 ft 517 kts 190°
2026-04-25 21:16 30.52793 -82.33499 42985 ft 516 kts 191°
2026-04-25 21:16 30.45657 -82.34418 42997 ft 516 kts 190°
2026-04-25 21:17 30.38510 -82.35287 42984 ft 516 kts 190°
2026-04-25 21:17 30.31370 -82.36189 42985 ft 516 kts 190°
2026-04-25 21:18 30.24229 -82.37067 42971 ft 516 kts 190°
2026-04-25 21:18 30.17086 -82.37901 42612 ft 516 kts 187°
2026-04-25 21:19 30.13460 -82.37865 41598 ft 524 kts 181°
2026-04-25 21:19 30.09817 -82.37566 40672 ft 526 kts 179°
2026-04-25 21:19 30.06161 -82.37268 39779 ft 527 kts 180°
2026-04-25 21:19 30.02493 -82.37110 38933 ft 529 kts 181°
2026-04-25 21:20 29.98802 -82.36980 38004 ft 532 kts 180°
2026-04-25 21:20 29.97554 -82.36915 37678 ft 533 kts 180°
2026-04-25 21:20 29.91400 -82.36492 36132 ft 533 kts 179°
2026-04-25 21:20 29.87694 -82.36288 35242 ft 533 kts 180°
2026-04-25 21:21 29.83933 -82.36120 34381 ft 534 kts 180°
2026-04-25 21:21 29.80212 -82.35919 33493 ft 536 kts 179°
2026-04-25 21:21 29.76559 -82.35689 32580 ft 530 kts 179°
2026-04-25 21:21 29.72899 -82.35475 31875 ft 524 kts 179°
2026-04-25 21:22 29.69273 -82.35291 31188 ft 519 kts 180°
2026-04-25 21:22 29.65678 -82.35102 30487 ft 514 kts 180°
2026-04-25 21:22 29.62114 -82.34896 29804 ft 511 kts 179°
2026-04-25 21:22 29.58581 -82.34692 29118 ft 507 kts 179°
2026-04-25 21:23 29.55072 -82.34502 28387 ft 503 kts 180°
2026-04-25 21:23 29.51601 -82.34317 27803 ft 498 kts 180°
2026-04-25 21:23 29.48161 -82.34126 27148 ft 492 kts 179°
2026-04-25 21:23 29.44761 -82.33934 26504 ft 487 kts 179°
2026-04-25 21:24 29.41390 -82.33749 25864 ft 482 kts 179°
2026-04-25 21:24 29.38062 -82.33402 25171 ft 479 kts 176°
2026-04-25 21:24 29.34768 -82.33000 24602 ft 474 kts 176°
2026-04-25 21:24 29.31507 -82.32636 23979 ft 469 kts 176°
2026-04-25 21:25 29.28264 -82.32259 23337 ft 467 kts 176°
2026-04-25 21:25 29.25052 -82.31862 22699 ft 463 kts 176°
2026-04-25 21:25 29.21862 -82.31473 22090 ft 459 kts 176°
2026-04-25 21:25 29.18695 -82.31103 21486 ft 456 kts 176°
2026-04-25 21:26 29.15554 -82.30735 20892 ft 452 kts 176°
2026-04-25 21:26 29.12434 -82.30361 20292 ft 449 kts 176°
2026-04-25 21:26 29.09339 -82.29988 19704 ft 446 kts 176°
2026-04-25 21:26 29.06262 -82.29624 19122 ft 443 kts 176°
2026-04-25 21:27 29.03212 -82.29264 18523 ft 438 kts 176°
2026-04-25 21:27 29.01201 -82.29025 18201 ft 438 kts 176°
2026-04-25 21:27 28.98181 -82.28665 17680 ft 435 kts 176°
2026-04-25 21:27 28.95184 -82.28309 17164 ft 431 kts 176°
2026-04-25 21:28 28.92214 -82.27957 16658 ft 423 kts 176°
2026-04-25 21:28 28.89392 -82.27619 16134 ft 393 kts 176°
2026-04-25 21:28 28.86752 -82.27304 15577 ft 370 kts 177°
2026-04-25 21:28 28.84255 -82.27011 15041 ft 352 kts 177°
2026-04-25 21:29 28.81871 -82.26731 14492 ft 338 kts 177°
2026-04-25 21:29 28.79570 -82.26459 13970 ft 328 kts 177°
2026-04-25 21:29 28.77317 -82.26194 13420 ft 323 kts 177°
2026-04-25 21:29 28.75099 -82.25932 12847 ft 318 kts 177°
2026-04-25 21:30 28.72921 -82.25789 12275 ft 311 kts 182°
2026-04-25 21:30 28.70764 -82.25772 11746 ft 308 kts 181°
2026-04-25 21:30 28.68636 -82.25722 11261 ft 304 kts 181°
2026-04-25 21:30 28.67244 -82.25692 10945 ft 301 kts 181°
2026-04-25 21:31 28.64460 -82.25654 10311 ft 296 kts 181°
2026-04-25 21:31 28.62411 -82.25624 9846 ft 292 kts 181°
2026-04-25 21:31 28.60398 -82.25582 9335 ft 288 kts 180°
2026-04-25 21:31 28.58406 -82.25540 8835 ft 285 kts 181°
2026-04-25 21:32 28.56442 -82.25503 8329 ft 280 kts 181°
2026-04-25 21:32 28.54494 -82.25467 7835 ft 278 kts 180°
2026-04-25 21:32 28.52565 -82.25431 7466 ft 277 kts 180°
2026-04-25 21:32 28.50653 -82.25400 7104 ft 274 kts 181°
2026-04-25 21:33 28.48761 -82.25380 6753 ft 271 kts 181°
2026-04-25 21:33 28.46882 -82.25357 6399 ft 269 kts 180°
2026-04-25 21:33 28.45012 -82.25331 6028 ft 269 kts 180°
2026-04-25 21:33 28.43142 -82.25306 5654 ft 271 kts 180°
2026-04-25 21:34 28.41249 -82.25282 5280 ft 271 kts 181°
2026-04-25 21:34 28.39366 -82.25258 4918 ft 271 kts 181°
2026-04-25 21:34 28.37495 -82.25248 4622 ft 267 kts 182°
2026-04-25 21:34 28.35732 -82.25811 4252 ft 263 kts 211°
2026-04-25 21:35 28.34297 -82.27067 4008 ft 259 kts 221°
2026-04-25 21:35 28.32937 -82.28395 3777 ft 258 kts 221°
2026-04-25 21:35 28.31575 -82.29704 3558 ft 251 kts 220°
2026-04-25 21:35 28.30379 -82.31055 3256 ft 241 kts 236°
2026-04-25 21:36 28.29831 -82.32805 2989 ft 230 kts 260°
2026-04-25 21:36 28.29625 -82.34634 3009 ft 234 kts 262°
2026-04-25 21:36 28.29409 -82.36457 3009 ft 234 kts 262°
2026-04-25 21:36 28.29193 -82.38275 3009 ft 232 kts 262°
2026-04-25 21:37 28.28930 -82.40088 2992 ft 233 kts 254°
2026-04-25 21:37 28.28446 -82.41171 2982 ft 232 kts 237°
2026-04-25 21:37 28.27247 -82.43223 3015 ft 234 kts 237°
2026-04-25 21:37 28.26383 -82.44766 3015 ft 230 kts 238°
2026-04-25 21:38 28.25510 -82.46315 3007 ft 235 kts 238°
2026-04-25 21:38 28.24631 -82.47859 3012 ft 234 kts 238°
2026-04-25 21:38 28.23751 -82.49404 3016 ft 233 kts 238°
2026-04-25 21:38 28.22831 -82.50906 2995 ft 232 kts 230°
2026-04-25 21:39 28.21487 -82.51876 2987 ft 231 kts 202°
2026-04-25 21:39 28.19866 -82.52121 3015 ft 236 kts 184°
2026-04-25 21:39 28.18289 -82.52153 3009 ft 213 kts 183°
2026-04-25 21:39 28.16911 -82.52192 2998 ft 184 kts 185°
2026-04-25 21:40 28.15668 -82.52239 2996 ft 177 kts 183°
2026-04-25 21:40 28.14442 -82.52284 2983 ft 166 kts 184°
2026-04-25 21:40 28.13313 -82.52322 2785 ft 156 kts 184°
2026-04-25 21:40 28.12257 -82.52358 2590 ft 150 kts 184°
2026-04-25 21:41 28.11230 -82.52395 2403 ft 149 kts 186°
2026-04-25 21:41 28.10196 -82.52430 2217 ft 144 kts 185°
2026-04-25 21:41 28.09212 -82.52462 2030 ft 140 kts 185°
2026-04-25 21:41 28.08261 -82.52495 1853 ft 134 kts 185°
2026-04-25 21:42 28.07345 -82.52526 1687 ft 130 kts 186°
2026-04-25 21:42 28.06439 -82.52559 1515 ft 129 kts 185°
2026-04-25 21:42 28.05555 -82.52589 1352 ft 125 kts 186°
2026-04-25 21:42 28.04686 -82.52620 1184 ft 127 kts 185°
2026-04-25 21:43 28.03797 -82.52650 1032 ft 128 kts 185°
2026-04-25 21:43 28.02902 -82.52680 849 ft 128 kts 186°
2026-04-25 21:43 28.02017 -82.52709 697 ft 127 kts 188°
2026-04-25 21:43 28.01133 -82.52746 555 ft 129 kts 187°
2026-04-25 21:44 28.00232 -82.52769 395 ft 130 kts 188°
2026-04-25 21:44 27.99326 -82.52801 216 ft 131 kts 187°
2026-04-25 21:44 27.97623 -82.52859 36 ft 98 kts 180°
2026-04-25 21:45 27.97166 -82.52875 35 ft 42 kts 181°
2026-04-25 21:45 27.97010 -82.52881 32 ft 23 kts 182°
2026-04-25 21:45 27.96946 -82.52808 36 ft 8 kts 94°
2026-04-25 21:45 27.96945 -82.52757 38 ft 7 kts 92°
2026-04-25 21:46 27.96943 -82.52667 39 ft 13 kts 91°
2026-04-25 21:46 27.96929 -82.52579 39 ft 10 kts 135°
2026-04-25 21:46 27.96896 -82.52568 39 ft 6 kts 165°
2026-04-25 21:46 27.96853 -82.52529 39 ft 7 kts 162°
2026-04-25 21:47 27.96833 -82.52541 39 ft 2 kts 249°
2026-04-25 21:47 27.96834 -82.52547 39 ft 0 kts 269°